User: anonymous
Location: Deer Lodge Site
(39.6809°N, 119.9392°W)
Time: 06:51:51
(UTC-07:00)
Language:

CZ-4C R/B - Orbit

View from above orbital plane
View from above orbital plane
View from above satellite
View from above satellite

Ground track
Ground track

The orbit data is extracted from the following two-line orbital elements,

1 36416U 10009D   14272.44389375 -.00000086  00000-0  90851-5 0  7608
2 36416 063.4505 041.0763 0290033 000.0804 000.0232 13.69424673228559
Epoch (UTC): 29 September 2014 10:39:12
Eccentricity: 0.0290033
inclination: 63.4505°
perigee height: 787 km
apogee height: 1215 km
right ascension of ascending node: 41.0763°
argument of perigee: 0.0804°
revolutions per day: 13.69424673
mean anomaly at epoch: 0.0232°
orbit number at epoch: 22855

The dashed part of the orbit path shows where the satellite is in the earth's shadow,  

DLR